EW1914 Weather Reports


time (UTC)temp
C
wind
direction
speed
KPH
gust
KPH
rain 1hr
cm
rain 24hr
cm
rain mn
cm
humidity
%
barometer
mb
20260504020959 29 0.0 0.0 0.00 0.00 0.00 37 1005.4
20260504020001 29 0.0 0.0 0.00 0.00 0.00 36 1005.5
20260504014959 30 0.0 0.0 0.00 0.00 0.00 36 1005.5
20260504013959 30 0.0 0.0 0.00 0.00 0.00 36 1005.6
20260504013001 30 0.0 0.0 0.00 0.00 0.00 35 1005.6
20260504011959 30 0.0 0.0 0.00 0.00 0.00 36 1005.7
20260504010959 30 0.0 0.0 0.00 0.00 0.00 35 1005.7
20260504010013 31 0.0 0.0 0.00 0.00 0.00 34 1005.8
20260504005004 31 0.0 0.0 0.00 0.00 0.00 33 1005.9
20260504003000 31 0.0 0.0 0.00 0.00 0.00 33 1006.0
20260504001959 31 0.0 0.0 0.00 0.00 0.00 31 1006.0
20260504001000 31 0.0 0.0 0.00 0.00 0.00 32 1006.0
20260504000001 32 0.0 0.0 0.00 0.00 0.00 31 1006.0
20260503234958 32 0.0 0.0 0.00 0.00 0.00 31 1006.2
20260503233959 32 0.0 0.0 0.00 0.00 0.00 32 1006.2
20260503231958 32 0.0 0.0 0.00 0.00 0.00 31 1006.4
20260503230958 32 0.0 0.0 0.00 0.00 0.00 31 1006.6
20260503222000 32 0.0 0.0 0.00 0.00 0.00 33 1007.4
20260503220958 32 0.0 0.0 0.00 0.00 0.00 35 1007.6
20260503220004 32 0.0 0.0 0.00 0.00 0.00 36 1007.6
20260503214959 31 0.0 0.0 0.00 0.00 0.00 38 1007.9
20260503213959 31 0.0 0.0 0.00 0.00 0.00 39 1007.9
20260503213000 31 0.0 0.0 0.00 0.00 0.00 41 1008.0
20260503211959 30 0.0 0.0 0.00 0.00 0.00 40 1008.1
20260503210001 29 0.0 0.0 0.00 0.00 0.00 39 1008.4
20260503204959 29 0.0 0.0 0.00 0.00 0.00 42 1008.5
20260503203959 28 0.0 0.0 0.00 0.00 0.00 42 1008.6
20260503201959 28 0.0 0.0 0.00 0.00 0.00 48 1009.0
20260503200959 27 0.0 0.0 0.00 0.00 0.00 47 1009.1
20260503200001 27 0.0 0.0 0.00 0.00 0.00 50 1009.3
20260503194958 26 0.0 0.0 0.00 0.00 0.00 50 1009.3
20260503193958 26 0.0 0.0 0.00 0.00 0.00 53 1009.5
20260503193001 25 0.0 0.0 0.00 0.00 0.00 55 1009.6
20260503191958 25 0.0 0.0 0.00 0.00 0.00 57 1009.7
20260503190959 24 0.0 0.0 0.00 0.00 0.00 57 1009.8
20260503190002 23 0.0 0.0 0.00 0.00 0.00 59 1010.0
20260503184958 23 0.0 0.0 0.00 0.00 0.00 59 1010.1
20260503183958 22 0.0 0.0 0.00 0.00 0.00 62 1010.2
20260503183000 22 0.0 0.0 0.00 0.00 0.00 63 1010.4
20260503181958 22 0.0 0.0 0.00 0.00 0.00 65 1010.5
20260503180000 21 0.0 0.0 0.00 0.00 0.00 66 1010.8
20260503174958 20 0.0 0.0 0.00 0.00 0.00 70 1010.8
20260503173958 20 0.0 0.0 0.00 0.00 0.00 72 1011.0
20260503173001 19 0.0 0.0 0.00 0.00 0.00 73 1011.0
20260503171957 18 0.0 0.0 0.00 0.00 0.00 74 1011.1
20260503150958 13 0.0 0.0 0.00 0.00 0.00 93 1011.6
20260503080957 15 0.0 0.0 0.00 0.00 0.00 85 1011.7
20260503072000 16 0.0 0.0 0.00 0.00 0.00 83 1011.7
20260503071000 16 0.0 0.0 0.00 0.00 0.00 83 1011.8
20260503054959 17 0.0 0.0 0.00 0.00 0.00 80 1011.5
20260503053959 17 0.0 0.0 0.00 0.00 0.00 79 1011.4
20260503053004 17 0.0 0.0 0.00 0.00 0.00 78 1011.6
20260503052000 17 0.0 0.0 0.00 0.00 0.00 78 1011.5
20260503051000 17 0.0 0.0 0.00 0.00 0.00 77 1011.6
20260503044959 18 0.0 0.0 0.00 0.00 0.00 76 1012.0
20260503043000 18 0.0 0.0 0.00 0.00 0.00 75 1011.7
20260503041959 18 0.0 0.0 0.00 0.00 0.00 74 1011.7
20260503040959 18 0.0 0.0 0.00 0.00 0.00 73 1011.7
20260503040000 18 0.0 0.0 0.00 0.00 0.00 73 1011.7
20260503034958 19 0.0 0.0 0.00 0.00 0.00 72 1011.6
20260503033959 19 0.0 0.0 0.00 0.00 0.00 71 1011.4
20260503032959 19 0.0 0.0 0.00 0.00 0.00 71 1011.4
20260503031959 20 0.0 0.0 0.00 0.00 0.00 71 1011.2
20260503030959 20 0.0 0.0 0.00 0.00 0.00 70 1011.2
20260503030000 20 0.0 0.0 0.00 0.00 0.00 69 1011.3
20260503024958 20 0.0 0.0 0.00 0.00 0.00 68 1011.2
20260503023958 20 0.0 0.0 0.00 0.00 0.00 67 1011.2
20260503022959 21 0.0 0.0 0.00 0.00 0.00 65 1011.2
20260503021958 22 0.0 0.0 0.00 0.00 0.00 64 1011.0